TimeCDT,TemperatureF,Dew PointF,Humidity,Sea Level PressureIn,VisibilityMPH,Wind Direction,Wind SpeedMPH,Gust SpeedMPH,PrecipitationIn,Events,Conditions,WindDirDegrees,DateUTC
12:15 AM,37.4,28.4,70,30.12,10.0,NNW,16.1,21.9,N/A,,Clear,340,2013-10-26 05:15:00
12:35 AM,37.4,28.4,70,30.13,10.0,NNW,17.3,-,N/A,,Clear,340,2013-10-26 05:35:00
12:55 AM,35.6,28.4,75,30.13,10.0,NNW,15.0,-,N/A,,Clear,330,2013-10-26 05:55:00
1:15 AM,35.6,28.4,75,30.14,10.0,NNW,11.5,-,N/A,,Clear,330,2013-10-26 06:15:00
1:35 AM,33.8,28.4,81,30.15,10.0,NNW,8.1,-,N/A,,Clear,330,2013-10-26 06:35:00
1:55 AM,32.0,28.4,87,30.14,10.0,NW,9.2,-,N/A,,Clear,320,2013-10-26 06:55:00
2:15 AM,32.0,26.6,80,30.15,10.0,NW,10.4,-,N/A,,Clear,320,2013-10-26 07:15:00
2:35 AM,32.0,26.6,80,30.15,10.0,NNW,9.2,-,N/A,,Clear,330,2013-10-26 07:35:00
2:55 AM,32.0,26.6,80,30.16,10.0,NW,12.7,-,N/A,,Clear,320,2013-10-26 07:55:00
3:15 AM,32.0,26.6,80,30.16,10.0,NNW,12.7,-,N/A,,Clear,330,2013-10-26 08:15:00
3:35 AM,32.0,26.6,80,30.17,10.0,NW,11.5,-,N/A,,Clear,320,2013-10-26 08:35:00
3:55 AM,32.0,26.6,80,30.18,10.0,NW,11.5,-,N/A,,Clear,320,2013-10-26 08:55:00
4:15 AM,32.0,26.6,80,30.18,10.0,NW,12.7,-,N/A,,Clear,320,2013-10-26 09:15:00
4:35 AM,32.0,26.6,80,30.19,10.0,NW,10.4,-,N/A,,Clear,310,2013-10-26 09:35:00
4:55 AM,30.2,24.8,80,30.19,10.0,WNW,9.2,-,N/A,,Clear,300,2013-10-26 09:55:00
5:15 AM,28.4,24.8,86,30.20,10.0,WNW,9.2,-,N/A,,Clear,300,2013-10-26 10:15:00
5:35 AM,28.4,24.8,86,30.20,10.0,NW,9.2,-,N/A,,Clear,310,2013-10-26 10:35:00
5:55 AM,28.4,24.8,86,30.22,10.0,NW,8.1,-,N/A,,Clear,310,2013-10-26 10:55:00
6:15 AM,28.4,24.8,86,30.22,10.0,NW,6.9,-,N/A,,Clear,310,2013-10-26 11:15:00
6:35 AM,26.6,24.8,93,30.22,10.0,NW,6.9,-,N/A,,Clear,310,2013-10-26 11:35:00
6:55 AM,24.8,23.0,93,30.23,10.0,WNW,5.8,-,N/A,,Clear,300,2013-10-26 11:55:00
7:15 AM,24.8,23.0,93,30.23,10.0,WNW,6.9,-,N/A,,Clear,300,2013-10-26 12:15:00
7:35 AM,26.6,23.0,86,30.24,10.0,WNW,6.9,-,N/A,,Clear,300,2013-10-26 12:35:00
7:55 AM,24.8,23.0,93,30.23,10.0,WNW,6.9,-,N/A,,Clear,290,2013-10-26 12:55:00
8:15 AM,26.6,23.0,86,30.24,10.0,WNW,5.8,-,N/A,,Clear,300,2013-10-26 13:15:00
8:35 AM,24.8,23.0,93,30.24,10.0,WNW,8.1,-,N/A,,Clear,290,2013-10-26 13:35:00
8:55 AM,26.6,24.8,93,30.25,10.0,WNW,5.8,-,N/A,,Clear,300,2013-10-26 13:55:00
9:15 AM,28.4,24.8,86,30.25,10.0,West,6.9,-,N/A,,Clear,270,2013-10-26 14:15:00
9:35 AM,30.2,26.6,86,30.25,3.0,West,6.9,-,N/A,,Clear,280,2013-10-26 14:35:00
9:55 AM,32.0,26.6,80,30.26,10.0,WNW,8.1,-,N/A,,Clear,300,2013-10-26 14:55:00
10:15 AM,32.0,26.6,80,30.26,5.0,West,9.2,-,N/A,,Haze,280,2013-10-26 15:15:00
10:35 AM,33.8,26.6,75,30.26,3.0,WNW,10.4,-,N/A,,Haze,300,2013-10-26 15:35:00
10:55 AM,35.6,26.6,70,30.26,10.0,NW,9.2,-,N/A,,Clear,310,2013-10-26 15:55:00
11:15 AM,35.6,26.6,70,30.26,10.0,WNW,12.7,-,N/A,,Clear,300,2013-10-26 16:15:00
11:35 AM,35.6,26.6,70,30.25,10.0,WNW,8.1,-,N/A,,Clear,300,2013-10-26 16:35:00
11:55 AM,37.4,24.8,60,30.24,10.0,NW,11.5,-,N/A,,Clear,320,2013-10-26 16:55:00
12:15 PM,37.4,26.6,65,30.24,10.0,WNW,11.5,-,N/A,,Clear,300,2013-10-26 17:15:00
12:35 PM,39.2,26.6,61,30.23,10.0,NW,8.1,-,N/A,,Partly Cloudy,310,2013-10-26 17:35:00
12:55 PM,39.2,26.6,61,30.23,10.0,WNW,6.9,-,N/A,,Partly Cloudy,290,2013-10-26 17:55:00
1:15 PM,39.2,26.6,61,30.23,8.0,WNW,11.5,-,N/A,,Clear,300,2013-10-26 18:15:00
1:35 PM,41.0,26.6,57,30.21,1.5,NW,6.9,-,N/A,,Haze,320,2013-10-26 18:35:00
1:55 PM,41.0,26.6,57,30.19,2.0,WNW,6.9,-,N/A,,Haze,290,2013-10-26 18:55:00
2:15 PM,41.0,24.8,53,30.18,9.0,WNW,8.1,-,N/A,,Clear,300,2013-10-26 19:15:00
2:35 PM,42.8,26.6,53,30.17,10.0,West,6.9,-,N/A,,Clear,280,2013-10-26 19:35:00
2:55 PM,42.8,24.8,49,30.17,3.0,West,5.8,-,N/A,,Haze,280,2013-10-26 19:55:00
3:15 PM,42.8,24.8,49,30.16,0.5,WSW,9.2,-,N/A,,Haze,240,2013-10-26 20:15:00
3:35 PM,44.6,24.8,46,30.15,8.0,West,9.2,-,N/A,,Clear,260,2013-10-26 20:35:00
3:55 PM,44.6,24.8,46,30.13,5.0,SW,6.9,-,N/A,,Haze,220,2013-10-26 20:55:00
4:15 PM,44.6,24.8,46,30.12,5.0,West,6.9,17.3,N/A,,Haze,260,2013-10-26 21:15:00
4:35 PM,46.4,24.8,43,30.11,10.0,WSW,9.2,-,N/A,,Clear,240,2013-10-26 21:35:00
4:55 PM,46.4,24.8,43,30.10,9.0,WSW,9.2,-,N/A,,Clear,240,2013-10-26 21:55:00
5:15 PM,46.4,24.8,43,30.09,3.0,WSW,6.9,-,N/A,,Haze,240,2013-10-26 22:15:00
5:35 PM,46.4,24.8,43,30.08,3.0,SW,10.4,-,N/A,,Haze,220,2013-10-26 22:35:00
5:55 PM,44.6,24.8,46,30.07,10.0,SW,8.1,-,N/A,,Clear,220,2013-10-26 22:55:00
6:15 PM,44.6,24.8,46,30.05,10.0,SSW,8.1,-,N/A,,Clear,210,2013-10-26 23:15:00
6:35 PM,41.0,24.8,53,30.04,7.0,SSW,6.9,-,N/A,,Clear,200,2013-10-26 23:35:00
6:55 PM,41.0,24.8,53,30.03,6.0,SSW,8.1,-,N/A,,Haze,200,2013-10-26 23:55:00
7:15 PM,39.2,26.6,61,30.02,10.0,South,9.2,-,N/A,,Clear,190,2013-10-27 00:15:00
7:35 PM,41.0,26.6,57,30.01,10.0,SSW,10.4,-,N/A,,Clear,200,2013-10-27 00:35:00
7:55 PM,39.2,24.8,56,30.00,10.0,SSW,9.2,-,N/A,,Clear,200,2013-10-27 00:55:00
8:15 PM,39.2,24.8,56,29.99,10.0,SSW,11.5,-,N/A,,Clear,200,2013-10-27 01:15:00
8:35 PM,37.4,24.8,60,29.97,10.0,South,11.5,-,N/A,,Partly Cloudy,190,2013-10-27 01:35:00
8:55 PM,37.4,24.8,60,29.96,10.0,SSW,11.5,-,N/A,,Partly Cloudy,200,2013-10-27 01:55:00
9:15 PM,37.4,24.8,60,29.95,10.0,SSW,12.7,-,N/A,,Clear,200,2013-10-27 02:15:00
9:35 PM,39.2,24.8,56,29.93,10.0,SSW,15.0,-,N/A,,Clear,210,2013-10-27 02:35:00
9:55 PM,39.2,24.8,56,29.93,10.0,SSW,12.7,-,N/A,,Partly Cloudy,210,2013-10-27 02:55:00
10:15 PM,39.2,24.8,56,29.92,10.0,SSW,15.0,-,N/A,,Partly Cloudy,210,2013-10-27 03:15:00
10:35 PM,39.2,24.8,56,29.91,10.0,SSW,12.7,-,N/A,,Partly Cloudy,210,2013-10-27 03:35:00
10:55 PM,39.2,24.8,56,29.90,10.0,SW,13.8,-,N/A,,Partly Cloudy,220,2013-10-27 03:55:00
11:15 PM,39.2,24.8,56,29.90,10.0,SW,13.8,-,N/A,,Clear,220,2013-10-27 04:15:00
11:35 PM,39.2,24.8,56,29.88,10.0,SW,15.0,-,N/A,,Clear,220,2013-10-27 04:35:00
11:55 PM,39.2,26.6,61,29.87,10.0,SW,15.0,-,N/A,,Clear,220,2013-10-27 04:55:00